This is the latest recevied weather packets stored in our database for station/object S56OA-13. If no packets are shown the sender has not sent any weather packets the latest 10 day(s).
| Time | Temp. | Humidity | Pressure | Rain* | Wind** | Luminosity | Snow |
|---|---|---|---|---|---|---|---|
| 1788667197 | 16.11° C | 42% | 866.6 hPa | - | - | - | - |
| 1788665395 | 16.67° C | 42% | 867.4 hPa | - | - | - | - |
| 1788663593 | 16.67° C | 42% | 868 hPa | - | - | - | - |
| 1788661792 | 17.22° C | 42% | 868.8 hPa | - | - | - | - |
| 1788659990 | 17.22° C | 42% | 869.8 hPa | - | - | - | - |
| 1788658189 | 18.33° C | 41% | 871.2 hPa | - | - | - | - |
| 1788656388 | 17.78° C | 42% | 871.6 hPa | - | - | - | - |
| 1788654586 | 18.33° C | 41% | 872.1 hPa | - | - | - | - |
| 1788652784 | 18.33° C | 42% | 872.1 hPa | - | - | - | - |
| 1788650983 | 18.33° C | 42% | 872.8 hPa | - | - | - | - |
| 1788649491 | 18.33° C | 42% | 873.1 hPa | - | - | - | - |
| 1788649182 | 18.33° C | 42% | 873.1 hPa | - | - | - | - |
| 1788647382 | 18.33° C | 41% | 872.5 hPa | - | - | - | - |
| 1788645580 | 18.33° C | 42% | 872 hPa | - | - | - | - |
| 1788643779 | 18.33° C | 41% | 872.2 hPa | - | - | - | - |
| 1788641978 | 18.33° C | 41% | 871.9 hPa | - | - | - | - |
| 1788640177 | 18.33° C | 42% | 871.7 hPa | - | - | - | - |
| 1788638376 | 18.33° C | 42% | 871.9 hPa | - | - | - | - |
| 1788636574 | 18.33° C | 42% | 872.7 hPa | - | - | - | - |
| 1788634773 | 18.89° C | 42% | 873.9 hPa | - | - | - | - |
| 1788632972 | 19.44° C | 43% | 875.9 hPa | - | - | - | - |
| 1788631161 | 20.56° C | 43% | 879.6 hPa | - | - | - | - |
| 1788629335 | 23.33° C | 42% | 887.7 hPa | - | - | - | - |
| 1788627534 | 25° C | 43% | 897.1 hPa | - | - | - | - |
| 1788625732 | 26.67° C | 43% | 901.6 hPa | - | - | - | - |
* Rain since midnight (hover to see other rain measurements)
** Current wind speed in m/s (hover to see current wind gust speed)